Location: Espelette
(43.3402°N, 1.4474°W)
Time: 00:48:10
(UTC+00:00)

Resurs 01 Rocket - Pass Details

Date: 19 May 2025
Orbit: 627 x 637 km, 97.7° (Epoch: 18 June)

Event Time Altitude Azimuth Distance (km) Brightness Sun altitude
Rises 20:47:05 0° 213° (SSW) 2,913 4.9 -12.5°
Reaches altitude 10° 20:50:20 10° 240° (WSW) 2,010 4.4 -12.9°
Maximum altitude 20:52:32 14° 270° (W) 1,782 4.6 -13.2°
Drops below altitude 10° 20:54:45 10° 301° (WNW) 2,015 5.5 -13.5°
Sets 20:58:02 0° 327° (NNW) 2,928 6.8 -13.9°
